Tracking 19908 objects as of 18-Oct-2019
HD Live streaming from Space Station
objects crossing your sky now

NADEZHDA 6

Track NADEZHDA 6 now!
10-day predictions
NADEZHDA 6 is classified as:


NORAD ID: 26384
Int'l Code: 2000-033A
Perigee: 669.1 km
Apogee: 689.6 km
Inclination: 97.9 °
Period: 98.2 minutes
Semi major axis: 7050 km
RCS: 1.836 m2 (large)
Launch date: June 28, 2000
Source: Commonwealth of Independent States (former USSR) (CIS)
Launch site: PLESETSK MISSILE AND SPACE COMPLEX (PKMTR)

Search and rescue; part of COSPAS/SARSAT fleet.
aabbcc
Your satellite tracking list
Your tracking list is empty




NASA's NSSDC Master Catalog

Two Line Element Set (TLE):
1 26384U 00033A   19291.08737160  .00000031  00000-0  14035-4 0  9994
2 26384  97.9023 341.4392 0014558 201.7350 158.3244 14.66521469 31816
Source of the keplerian elements: AFSPC